Other Public Products
Issued by NWS Charleston, SC

Current Version | Previous Version | Graphics & Text | Print | Product List | Glossary On
Versions: 1 2 3 4 5 6 7 8 9 10 11 12 13 14 15 16 17 18 19 20 21 22 23 24 25 26 27 28 29 30 31 32 33 34 35 36 37 38 39 40 41 42 43 44 45 46 47 48 49 50
530 FPUS82 KCHS 241012 OPUCHS TEST...KCHS/KSAV Gateway Observations...TEST National Weather Service Charleston SC 600 AM EDT SAT JUN 24 2017 NOTE: "fair" indicates few or no clouds below 12,000 feet with no significant weather and/or obstructions to visibility. SCZ050-WAZ558-NCZ071-TXZ119-213-PAZ071-DCZ001-FLZ074-172-MI076- NYZ176-178-MAZ016-IL014-TNZ027-NJZ106-GAZ044-MD014-241100- ...Gateway Observations for Charleston International... CITY SKY/WX TMP DP RH WIND PRES REMARKS Chas Airport MOCLDY 79 75 87 SW9 29.98R Seattle CLEAR 64 47 53 NE6 30.15S Charlotte CLOUDY 74 70 87 W6 29.93R Dallas DFW CLOUDY 75 72 90 S6 29.97R Dallas Love LGT RAIN 74 70 87 SE8 29.99R Philladelphia CLOUDY 78 73 84 S13 29.54F Wash National CLOUDY 74 70 87 VRB7 29.68R Baltimore CLOUDY 72 70 93 W15G21 29.66R Miami MOCLDY 83 74 74 SE9 30.01S Detroit PTCLDY 63 55 75 W10 29.79R Newark RAIN 72 72 100 CALM 29.58F FOG Laguardia LGT RAIN 74 72 93 CALM 29.58F J F K RAIN 71 71 100 S8 29.61R FOG Boston Logan CLOUDY 74 71 91 SW14 29.53R Ft. Lauderdale PTCLDY 82 74 76 SE10 30.01R Chicago O`Hare PTCLDY 62 55 77 W9 29.90R Chicago Midway PTCLDY 63 56 78 W7 29.90R Houston Bush MOCLDY 79 77 94 NE5 29.96R Houston Hobby MOCLDY 82 79 90 SE5 29.94S HX 92 Nashville MOCLDY 72 66 81 NW5 29.96R Atlanta CLOUDY 73 71 93 SW6 29.98S $$ GAZ044-118-TXZ119-213-NCZ071-DCZ001-MDZ014-506-PAZ021-071-NJZ106- NYZ176-178-MAZ106-OHZ011-021-055-MIZ076-KYZ091-ILZ014-INZ047- MNZ060-ONZ431-241100- ...Gateway Observations for Savannah International... CITY SKY/WX TMP DP RH WIND PRES REMARKS Savannah Arpt PTCLDY 76 71 85 SW7 30.01R Atlanta CLOUDY 73 71 93 SW6 29.98S Charlotte CLOUDY 74 70 87 W6 29.93R Dallas DFW CLOUDY 75 72 90 S6 29.97R Houston Bush MOCLDY 79 77 94 NE5 29.96R Wash National CLOUDY 74 70 87 VRB7 29.68R Wash Dulles CLOUDY 70 66 87 NW10 29.70R Baltimore CLOUDY 72 70 93 W15G21 29.66R Philadelphia CLOUDY 78 73 84 S13 29.54F Newark RAIN 72 72 100 CALM 29.58F FOG Laguardia LGT RAIN 74 72 93 CALM 29.58F J F K RAIN 71 71 100 S8 29.61R FOG Boston CLOUDY 74 71 91 SW14 29.53R Pittsburg PTCLDY 66 65 96 W8 29.81R Akron PTCLDY 63 58 83 W6 29.83R Cleveland PTCLDY 64 57 78 SW6 29.82R Cincinnati PTCLDY 62 62 100 W5 29.91R Columbus CLEAR 60 60 100 SW3 29.86R Detroit PTCLDY 63 55 75 W10 29.79R Chicago O`Hare PTCLDY 62 55 77 W9 29.90R Minneapolis PTCLDY 56 46 69 W8 29.97R Indianapolis CLOUDY 61 56 83 NW9 29.92R Toronto Canada PTCLDY 61 54 77 W9 29.68R $$

USA.gov is the U.S. government's official web portal to all federal, state and local government web resources and services.